This demonstration page uses our WeatherBlox Daily Observations layout. Learn more.

Left ArrowRight Arrow

Hourly Observations for February 10, 2020

Temp ( °F °C ) Dew Point ( °F °C ) Humidity (%) Winds ( mph kmh ) Pressure ( in mb ) Visibility ( mi km ) Precip ( " mm )
12:56 am 00:56 Clear 24 -4.4 19 -7.2 81 81 WSW 3 6 30.21 1023 10 16 0.00 0.00
1:56 am 01:56 Partly Cloudy 20 -6.7 18 -7.8 92 92 SSW 6 9 30.21 1023 10 16 0.00 0.00
2:56 am 02:56 Clear 19 -7.2 17 -8.3 92 92 SW 5 7 30.19 1022 10 16 0.00 0.00
3:56 am 03:56 Clear 21 -6.1 18 -7.8 88 88 SW 7 11 30.18 1022 10 16 0.00 0.00
4:56 am 04:56 Clear 22 -5.6 19 -7.2 89 89 SW 9 15 30.16 1021 10 16 0.00 0.00
5:56 am 05:56 Clear 21 -6.1 18 -7.8 88 88 SW 7 11 30.16 1021 10 16 0.00 0.00
6:56 am 06:56 Clear 21 -6.1 18 -7.8 88 88 SW 9 15 30.17 1022 10 16 0.00 0.00
7:56 am 07:56 Sunny 21 -6.1 18 -7.8 88 88 SW 8 13 30.18 1022 10 16 0.00 0.00
8:56 am 08:56 Sunny 24 -4.4 20 -6.7 84 84 SSW 14 22 30.20 1023 10 16 0.00 0.00
9:56 am 09:56 Sunny 26 -3.3 21 -6.1 81 81 SW 12 19 30.20 1023 10 16 0.00 0.00
10:56 am 10:56 Sunny 33 0.6 23 -5 66 66 WSW 15 24 30.20 1023 10 16 0.00 0.00
11:56 am 11:56 Sunny 34 1.1 20 -6.7 56 56 WNW 9 15 30.20 1023 10 16 0.00 0.00
12:56 pm 12:56 Sunny 37 2.8 21 -6.1 52 52 NW 6 9 30.17 1022 10 16 0.00 0.00
1:56 pm 13:56 Sunny 39 3.9 21 -6.1 48 48 NW 6 9 30.16 1021 10 16 0.00 0.00
2:56 pm 14:56 Sunny 42 5.6 21 -6.1 43 43 NNW 6 9 30.13 1020 10 16 0.00 0.00
3:56 pm 15:56 Sunny 42 5.6 21 -6.1 43 43 N 14 22 30.14 1021 10 16 0.00 0.00
4:56 pm 16:56 Sunny 42 5.6 20 -6.7 41 41 N 16 26 30.14 1021 10 16 0.00 0.00
5:56 pm 17:56 Mostly Sunny 35 1.7 19 -7.2 52 52 N 7 11 30.19 1023 10 16 0.00 0.00
6:56 pm 18:56 Mostly Clear 33 0.6 20 -6.7 58 58 NE 3 6 30.23 1024 10 16 0.00 0.00
7:56 pm 19:56 Clear 31 -0.6 22 -5.6 69 69 NW 3 6 30.25 1024 10 16 0.00 0.00
8:56 pm 20:56 Mostly Cloudy 30 -1.1 21 -6.1 69 69 NNW 8 13 30.27 1025 10 16 0.00 0.00
9:56 pm 21:56 Mostly Clear 33 0.6 21 -6.1 61 61 N 16 26 30.30 1026 10 16 0.00 0.00
10:56 pm 22:56 Clear 30 -1.1 21 -6.1 69 69 N 15 24 30.32 1027 10 16 0.00 0.00
11:56 pm 23:56 Cloudy 29 -1.7 21 -6.1 72 72 NNW 7 11 30.34 1027 10 16 0.00 0.00

Powered by AerisWeather